This demonstration page uses our WeatherBlox Daily Observations layout. Learn more.

Hourly Observations for May 6, 2017

Temp ( °F °C ) Dew Point ( °F °C ) Humidity (%) Winds ( mph kmh ) Pressure ( in mb ) Visibility ( mi km ) Precip ( " mm )
12:15 am 00:15 Clear 52 11.1 43 6.1 72 72 S 3 6 29.94 1014 10 16.09344 0 0
12:35 am 00:35 Clear 53 11.5 43 6 69 69 Calm 29.94 1014 10 16.09344 0 0
12:55 am 00:55 Clear 51 10.3 43 6 75 75 Calm 29.94 1014 10 16.09344 0 0
1:15 am 01:15 Clear 48 9.1 43 5.9 81 81 Calm 29.97 1015 10 16.09344 0 0
1:35 am 01:35 Clear 48 8.7 42 5.4 80 80 E 3 6 29.97 1015 10 16.09344 0 0
1:55 am 01:55 Clear 47 8.6 42 5.6 82 82 E 3 6 29.97 1015 10 16.09344 0 0
2:15 am 02:15 Clear 47 8.2 41 5 80 80 ENE 5 7 29.97 1015 10 16.09344 0 0
2:35 am 02:35 Clear 47 8.4 41 5.1 80 80 E 3 6 29.97 1015 10 16.09344 0 0
2:55 am 02:55 Clear 46 8 41 4.9 81 81 Calm 29.97 1015 10 16.09344 0 0
3:15 am 03:15 Clear 46 7.5 40 4.6 82 82 Calm 29.97 1015 10 16.09344 0 0
3:35 am 03:35 Clear 44 6.6 39 3.7 82 82 NW 3 6 29.97 1015 10 16.09344 0 0
3:55 am 03:55 Clear 44 6.6 39 4.1 84 84 Calm 29.97 1015 10 16.09344 0 0
4:15 am 04:15 Clear 45 7 40 4.3 83 83 N 3 6 29.97 1015 10 16.09344 0 0
4:35 am 04:35 Clear 44 6.7 40 4.7 87 87 Calm 29.97 1015 10 16.09344 0 0
4:55 am 04:55 Clear 44 6.5 39 4.1 85 85 Calm 29.97 1015 10 16.09344 0 0
5:15 am 05:15 Clear 43 6.1 39 3.9 86 86 Calm 30 1016 10 16.09344 0 0
5:35 am 05:35 Clear 43 6.1 39 4 87 87 Calm 30 1016 10 16.09344 0 0
5:55 am 05:55 Clear 42 5.7 38 3.6 87 87 Calm 30 1016 10 16.09344 0 0
6:15 am 06:15 Clear 43 6.2 38 3.6 84 84 Calm 29.97 1015 10 16.09344 0 0
6:35 am 06:35 Sunny 44 6.5 40 4.2 85 85 Calm 30 1016 10 16.09344 0 0
6:55 am 06:55 Sunny 43 6.1 39 3.9 86 86 Calm 30.03 1017 10 16.09344 0 0
7:15 am 07:15 Sunny 44 6.4 41 4.8 90 90 WNW 3 6 30.03 1017 10 16.09344 0 0
7:35 am 07:35 Sunny 47 8.1 44 6.4 89 89 Calm 30 1016 10 16.09344 0 0
7:55 am 07:55 Sunny 50 9.9 46 7.6 86 86 Calm 29.97 1015 10 16.09344 0 0
8:15 am 08:15 Sunny 53 11.5 46 7.9 79 79 Calm 29.97 1015 10 16.09344 0 0
8:35 am 08:35 Sunny 55 13 48 8.8 76 76 Calm 29.94 1014 10 16.09344 0 0
8:55 am 08:55 Sunny 59 15 50 9.8 71 71 Calm 29.94 1014 10 16.09344 0 0
9:15 am 09:15 Sunny 63 17.2 51 10.3 64 64 Calm 29.91 1013 7 11.265408 0 0
9:35 am 09:35 Sunny 66 19 50 10 56 56 Calm 29.91 1013 10 16.09344 0 0
9:55 am 09:55 Sunny 70 21 47 8.1 44 44 Calm 29.88 1012 10 16.09344 0 0
10:15 am 10:15 Sunny 71 21.9 47 8.5 42 42 Calm 29.85 1011 10 16.09344 0 0
10:35 am 10:35 Sunny 73 22.7 46 7.8 38 38 Calm 29.88 1012 10 16.09344 0 0
10:55 am 10:55 Sunny 74 23.5 47 8.4 38 38 Calm 29.83 1010 10 16.09344 0 0
11:20 am 11:20 Sunny 76 24.2 49 9.6 40 40 ESE 7 11 29.83 1010 10 16.09344 0 0
11:35 am 11:35 Sunny 76 24.6 49 9.5 38 38 E 8 13 29.83 1010 10 16.09344 0 0
11:55 am 11:55 Sunny 77 25.1 48 8.9 36 36 E 8 13 29.83 1010 10 16.09344 0 0
12:15 pm 12:15 Sunny 77 25.2 47 8.3 34 34 SE 7 11 29.83 1010 10 16.09344 0 0
12:35 pm 12:35 Sunny 78 25.8 48 8.7 34 34 ESE 9 15 29.83 1010 10 16.09344 0 0
12:55 pm 12:55 Sunny 79 26 49 9.3 35 35 SE 9 15 29.83 1010 10 16.09344 0 0
1:15 pm 13:15 Sunny 80 26.5 48 8.9 33 33 SE 12 19 29.77 1008 10 16.09344 0 0
1:35 pm 13:35 Sunny 81 27 47 8.6 31 31 SSE 8 13 29.77 1008 10 16.09344 0 0
1:55 pm 13:55 Sunny 81 27 44 6.8 28 28 Calm 29.77 1008 10 16.09344 0 0
2:15 pm 14:15 Sunny 81 27.3 45 7.4 28 28 SSE 8 13 29.77 1008 10 16.09344 0 0
2:35 pm 14:35 Sunny 82 27.6 43 6.1 25 25 S 6 9 29.77 1008 10 16.09344 0 0
2:55 pm 14:55 Sunny 82 28 44 6.8 26 26 S 8 13 29.77 1008 10 16.09344 0 0
3:15 pm 15:15 Sunny 82 28 43 6.1 25 25 S 7 11 29.74 1007 10 16.09344 0 0
3:35 pm 15:35 Sunny 82 28 44 6.4 25 25 SE 8 13 29.74 1007 10 16.09344 0 0
3:55 pm 15:55 Sunny 83 28.3 44 6.8 26 26 SSE 15 24 29.74 1007 10 16.09344 0 0
4:15 pm 16:15 Sunny 83 28.3 44 6.4 25 25 S 10 17 29.74 1007 10 16.09344 0 0
4:35 pm 16:35 Sunny 83 28.1 45 7 26 26 SSE 9 15 29.71 1006 10 16.09344 0 0
4:55 pm 16:55 Sunny 83 28.3 44 6.4 25 25 S 8 13 29.71 1006 10 16.09344 0 0
5:15 pm 17:15 Sunny 83 28.3 44 6.9 26 26 SE 9 15 29.71 1006 10 16.09344 0 0
5:35 pm 17:35 Sunny 83 28.2 44 6.8 26 26 SSW 13 20 29.71 1006 10 16.09344 0 0
5:55 pm 17:55 Sunny 82 27.8 45 7.4 28 28 S 9 15 29.68 1005 10 16.09344 0 0
6:15 pm 18:15 Sunny 82 27.6 44 6.8 27 27 S 9 15 29.68 1005 10 16.09344 0 0
6:35 pm 18:35 Sunny 81 27.2 45 7.3 28 28 SSE 12 19 29.68 1005 10 16.09344 0 0
6:55 pm 18:55 Sunny 81 27 45 7.2 28 28 S 13 20 29.68 1005 10 16.09344 0 0
7:15 pm 19:15 Sunny 80 26.4 44 6.8 29 29 S 10 17 29.68 1005 10 16.09344 0 0
7:35 pm 19:35 Sunny 78 25.7 44 6.8 30 30 SSE 10 17 29.68 1005 10 16.09344 0 0
7:55 pm 19:55 Sunny 76 24.5 46 7.8 34 34 SSE 10 17 29.71 1006 10 16.09344 0 0
8:15 pm 20:15 Sunny 74 23.4 45 7.4 36 36 SSE 10 17 29.71 1006 10 16.09344 0 0
8:35 pm 20:35 Sunny 71 21.7 45 7.4 40 40 SSE 9 15 29.71 1006 10 16.09344 0 0
8:55 pm 20:55 Clear 70 21 45 7.4 42 42 SSE 10 17 29.77 1008 10 16.09344 0 0
9:15 pm 21:15 Clear 69 20.5 46 7.5 43 43 SSE 10 17 29.77 1008 10 16.09344 0 0
9:35 pm 21:35 Clear 66 19.1 46 8 49 49 SSE 9 15 29.77 1008 10 16.09344 0 0
9:55 pm 21:55 Clear 65 18.5 46 7.7 50 50 SSE 9 15 29.77 1008 10 16.09344 0 0
10:15 pm 22:15 Clear 67 19.4 45 7 45 45 SSE 13 20 29.8 1009 10 16.09344 0 0
10:35 pm 22:35 Clear 67 19.4 45 7 45 45 SSE 13 20 29.8 1009 10 16.09344 0 0
10:55 pm 22:55 Clear 65 18.6 45 7.4 48 48 SSE 12 19 29.83 1010 10 16.09344 0 0
11:15 pm 23:15 Clear 65 18.5 45 7.3 48 48 SSE 12 19 29.83 1010 10 16.09344 0 0
11:35 pm 23:35 Clear 64 18 45 7.3 50 50 SSE 10 17 29.83 1010 10 16.09344 0 0
11:55 pm 23:55 Clear 64 18 45 7.1 49 49 SSE 12 19 29.83 1010 10 16.09344 0 0

Powered by AerisWeather